sat.trackr.live / text

‹ back to catalog

STARLINK-4411

NORAD 53202 · 2022-084P

PAYLOAD ACTIVE UNKNOWN

§ Identity

Operator
Country
US
Launch date
2022-07-22
Launch site
AFWTR
Launch vehicle
Mass (kg)
RCS (m²)

Purposes: comms

External: N2YO · Heavens-Above · Gunter

§ Orbital elements

Epoch: 2026-09-20T00:00:02.998944Z

Period
93.91 min
Inclination
97.2845°
Eccentricity
0.0001394
Mean motion
15.33410167 rev/d
Perigee alt
464.7 km
Apogee alt
466.6 km
Semi-major
6,843.8 km
B*
1.6908e-3
RAAN
318.6486°
Arg perigee
86.5998°
Mean anomaly
0.3255°
Rev number
581

§ Raw data

STARLINK-44111 53202U 22084P   26263.00003471  .00054849  00000+0  16908-2 0  99972 53202  97.2845 318.6486 0001394  86.5998   0.3255 15.33410167  5817

JSON: /api/v1/satellites/53202 · /tle

For live sub-satellite position, see the globe view (requires WebGL).

§ Visibility from observer

Set your observer location to see the next 7 days of passes ≥ 10°. The values pass through the URL so the page stays shareable.

No JS? Fill the form by hand. The geolocation button needs JavaScript.